map of BES home
BES - Airport
Location
City:  Brest, Bretagne, France
Name:Guipavas
ICAO:LFRB
IATA:BES

Details
Type:Airport (Aerodrome, Airfield)
Use:Public/Civil, International (customs port of entry)
Latitude:4826'50"N (48.447222)
Longitude:425'18"W (-4.421666)
Elevation:325 ft (99 m)
Variation:1.47W (WMM2015 magnetic declination)
0.14 annual change
Runways:2
Longest:10171 × 148 ft (3100 × 45 m), paved

Time
Time Zone:UTC+1 (DST+2)
Local Time:

Weather
METAR:LFRB 211800Z AUTO 24003KT 9999 FEW038 BKN062 13/09 Q1022 NOSIG
TAF:LFRB 211700Z 2118/2224 28008KT 9999 FEW035 SCT050
BECMG 2208/2211 18016G30KT 4000 -RA BKN013 OVC090
TEMPO 2211/2217 1500 RADZ OVC003
BECMG 2217/2220 22013KT 1000 -DZ VV///

Related Locations
Nearby:
Farthest:NZTI: 12132 mi / 19525 km
Taieri, OTA, NZ

Find:

   beyond  
but within

Other Information
Maps:
NOTAMs:
Links:
Sources:

  
  • flag of France
  • flag of Bretagne
  

Sectional Chart

Flight Planning
at skyvector.com

Satellite Image

Google Maps Satellite view

 

Copyright © 2004-2018 Karl L. Swartz. All rights reserved.
The Great Circle Mapper name and logo are trademarks of the Great Circle Mapper.
All other trademarks mentioned herein belong to their respective owners.
Please see credits for attibutions and further copyright information.

  Follow gcmap on Facebook Follow gcmap on Twitter Follow gcmap on Google+ GCmap on LinkedIn

hCard Microformat

Geo Microformat